Weather in Otynya

Ukraine / Ivano-Frankovsk District     48°44′00″N   24°51′23″E
temp.,
°C
wind,
m/s
gust,
m/s
humid.,
%
clouds,
%
prec.,
mm/h
press.,
hPa
HPBL,
m
16 june, wed
wed1600:00+15wnw3694100 0.2 1017111
03:00+14wnw259599 0.3 1017124
06:00+13nw379599 0.0 1017188
09:00+17nw45837 0.0 1018426
12:00+20n346850 0.1 10181165
15:00+22n346114 0.4 10171476
18:00+21n35765 0.8 10161043
21:00+17nnw22903 2.1 101817
17 june, thu
thu1700:00+14wnw22959 1.1 101922
03:00+14wnw229528 1.1 101925
06:00+14nw229651 0.0 102033
09:00+17n228622 0.0 1021335
12:00+21ne33707 0.1 1021895
15:00+23nne346192 0.2 10201509
18:00+21ene348259 1.4 1020473
21:00+18e1190100 2.4 102111
18 june, fri
fri1800:00+16wsw1193100 0.0 102211
03:00+15wsw11956 0.0 102111
06:00+15se119611 0.0 102211
09:00+19ese239063 0.0 1022474
12:00+23e347431 0.2 1021992
15:00+25e446422 0.4 10201427
18:00+24e46690 0.1 10201197
21:00+19se37900 0.3 1020147
19 june, sat
sat1900:00+17sse22948 0.0 102123
03:00+16ese259843 0.0 1021129
06:00+17ese2698100 0.0 1021328
09:00+18ese369398 0.1 1022394
12:00+23ese567229 0.1 10211153
15:00+25ese566454 0.3 10191468
18:00+22ese458428 3.3 1020738
21:00+18ese229342 5.3 102040
20 june, sun
sun2000:00+16se229614 0.0 102017
03:00+15se11975 0.0 101912
06:00+15se119725 0.0 101915
09:00+19se348966 0.0 1019482
12:00+23ese346919 0.1 10181083
15:00+25e446319 0.1 10161334
18:00+24e45687 0.0 10151296
21:00+19ese369261 1.5 1016117